| time (UTC) | temp C | wind direction | speed KPH | gust KPH | rain 1hr cm | rain 24hr cm | rain mn cm | humidity % | barometer mb |
| 20260507204843 | 14 | 28 | 0.0 | 4.8 | 0.00 | 0.71 | 0.46 | 99 | 1012.6 |
| 20260507204337 | 13 | 53 | 0.0 | 4.8 | 0.03 | 0.71 | 0.46 | 98 | 1012.5 |
| 20260507204326 | 13 | 355 | 0.0 | 4.8 | 0.15 | 0.71 | 0.46 | 98 | 1012.7 |
| 20260507203548 | 13 | 20 | 0.0 | 4.8 | 0.15 | 0.71 | 0.46 | 98 | 1012.8 |
| 20260507202819 | 13 | 269 | 1.6 | 9.7 | 0.15 | 0.71 | 0.46 | 99 | 1012.7 |
| 20260507202312 | 13 | 37 | 1.6 | 9.7 | 0.18 | 0.71 | 0.46 | 98 | 1012.8 |
| 20260507201806 | 13 | 329 | 1.6 | 6.4 | 0.18 | 0.71 | 0.46 | 98 | 1013.0 |
| 20260507201303 | 13 | 15 | 3.2 | 14.5 | 0.18 | 0.71 | 0.46 | 98 | 1013.1 |
| 20260507200754 | 13 | 345 | 1.6 | 14.5 | 0.18 | 0.71 | 0.46 | 98 | 1013.0 |
| 20260507200249 | 13 | 46 | 3.2 | 11.3 | 0.18 | 0.71 | 0.46 | 98 | 1013.0 |
| 20260507195743 | 13 | 22 | 3.2 | 11.3 | 0.18 | 0.71 | 0.46 | 98 | 1013.0 |
| 20260507195237 | 13 | 4 | 3.2 | 9.7 | 0.18 | 0.71 | 0.46 | 98 | 1013.2 |
| 20260507194730 | 13 | 41 | 1.6 | 9.7 | 0.18 | 0.71 | 0.46 | 99 | 1013.2 |
| 20260507194225 | 13 | 65 | 3.2 | 12.9 | 0.13 | 0.66 | 0.43 | 99 | 1013.0 |
| 20260507193719 | 13 | 30 | 4.8 | 16.1 | 0.03 | 0.56 | 0.30 | 98 | 1013.2 |
| 20260507193212 | 13 | 46 | 3.2 | 16.1 | 0.03 | 0.56 | 0.30 | 98 | 1013.2 |
| 20260507192931 | 13 | 23 | 3.2 | 9.7 | 0.00 | 0.53 | 0.28 | 98 | 1013.1 |
| 20260507192201 | 13 | 351 | 1.6 | 8.0 | 0.00 | 0.53 | 0.28 | 98 | 1013.0 |
| 20260507191655 | 13 | 54 | 1.6 | 6.4 | 0.00 | 0.53 | 0.28 | 98 | 1012.9 |
| 20260507191151 | 13 | 54 | 1.6 | 6.4 | 0.00 | 0.53 | 0.28 | 98 | 1012.7 |
| 20260507190643 | 13 | 357 | 1.6 | 6.4 | 0.00 | 0.53 | 0.28 | 98 | 1012.9 |
| 20260507190401 | 13 | 30 | 1.6 | 6.4 | 0.00 | 0.53 | 0.28 | 98 | 1013.0 |
| 20260507185637 | 13 | 27 | 1.6 | 11.3 | 0.00 | 0.53 | 0.28 | 98 | 1013.2 |
| 20260507185137 | 13 | 262 | 3.2 | 14.5 | 0.00 | 0.53 | 0.28 | 98 | 1013.2 |
| 20260507184637 | 14 | 76 | 3.2 | 14.5 | 0.00 | 0.53 | 0.28 | 98 | 1012.9 |
| 20260507184133 | 14 | 317 | 1.6 | 8.0 | 0.00 | 0.53 | 0.28 | 98 | 1013.0 |
| 20260507183633 | 14 | 20 | 3.2 | 20.9 | 0.00 | 0.53 | 0.28 | 98 | 1013.0 |
| 20260507183134 | 14 | 53 | 4.8 | 20.9 | 0.00 | 0.53 | 0.28 | 98 | 1013.0 |
| 20260507182637 | 15 | 341 | 3.2 | 11.3 | 0.00 | 0.53 | 0.28 | 98 | 1013.1 |
| 20260507182359 | 15 | 58 | 1.6 | 11.3 | 0.00 | 0.53 | 0.28 | 98 | 1013.0 |
| 20260507181633 | 15 | 47 | 1.6 | 16.1 | 0.00 | 0.53 | 0.28 | 98 | 1013.0 |
| 20260507181131 | 15 | 46 | 1.6 | 16.1 | 0.00 | 0.53 | 0.28 | 98 | 1012.9 |
| 20260507180629 | 15 | 98 | 3.2 | 12.9 | 0.00 | 0.53 | 0.28 | 98 | 1012.9 |
| 20260507180130 | 15 | 63 | 3.2 | 12.9 | 0.00 | 0.53 | 0.28 | 98 | 1013.1 |
| 20260507175629 | 15 | 58 | 1.6 | 11.3 | 0.00 | 0.53 | 0.28 | 98 | 1013.0 |
| 20260507175129 | 15 | 27 | 1.6 | 12.9 | 0.03 | 0.53 | 0.28 | 98 | 1013.1 |
| 20260507174855 | 15 | 347 | 3.2 | 12.9 | 0.03 | 0.53 | 0.28 | 98 | 1013.1 |
| 20260507174128 | 15 | 49 | 3.2 | 11.3 | 0.05 | 0.53 | 0.28 | 98 | 1013.1 |
| 20260507173626 | 15 | 344 | 1.6 | 8.0 | 0.10 | 0.56 | 0.28 | 98 | 1013.1 |
| 20260507173126 | 15 | 10 | 3.2 | 11.3 | 0.13 | 0.56 | 0.28 | 98 | 1013.1 |
| 20260507172621 | 15 | 53 | 3.2 | 14.5 | 0.13 | 0.56 | 0.28 | 98 | 1013.2 |
| 20260507172111 | 15 | 41 | 3.2 | 14.5 | 0.15 | 0.56 | 0.28 | 98 | 1013.2 |
| 20260507171606 | 16 | 56 | 1.6 | 9.7 | 0.18 | 0.56 | 0.28 | 98 | 1013.3 |
| 20260507171105 | 16 | 355 | 1.6 | 8.0 | 0.18 | 0.58 | 0.28 | 98 | 1013.3 |
| 20260507170605 | 16 | 46 | 1.6 | 8.0 | 0.18 | 0.58 | 0.28 | 98 | 1013.2 |
| 20260507170119 | 16 | 77 | 0.0 | 4.8 | 0.18 | 0.58 | 0.28 | 98 | 1013.2 |
| 20260507170107 | 16 | 114 | 1.6 | 8.0 | 0.18 | 0.58 | 0.28 | 98 | 1013.1 |
| 20260507165106 | 16 | 70 | 1.6 | 12.9 | 0.15 | 0.56 | 0.25 | 98 | 1013.0 |
| 20260507164609 | 16 | 67 | 3.2 | 12.9 | 0.15 | 0.56 | 0.25 | 98 | 1013.0 |
| 20260507164108 | 16 | 354 | 1.6 | 6.4 | 0.13 | 0.53 | 0.23 | 98 | 1012.8 |
| 20260507163608 | 16 | 56 | 0.0 | 3.2 | 0.08 | 0.48 | 0.18 | 98 | 1012.9 |
| 20260507163108 | 16 | 348 | 0.0 | 3.2 | 0.05 | 0.46 | 0.15 | 98 | 1012.9 |
| 20260507162603 | 16 | 3 | 0.0 | 6.4 | 0.05 | 0.46 | 0.15 | 98 | 1012.9 |
| 20260507162327 | 16 | 12 | 0.0 | 6.4 | 0.03 | 0.43 | 0.13 | 98 | 1012.8 |
| 20260507161821 | 16 | 81 | 0.0 | 4.8 | 0.00 | 0.41 | 0.10 | 98 | 1012.8 |
| 20260507161104 | 16 | 6 | 0.0 | 3.2 | 0.00 | 0.41 | 0.10 | 98 | 1012.8 |
| 20260507160604 | 16 | 25 | 0.0 | 3.2 | 0.00 | 0.41 | 0.10 | 98 | 1012.9 |
| 20260507160104 | 16 | 7 | 0.0 | 3.2 | 0.00 | 0.41 | 0.10 | 98 | 1013.0 |
| 20260507155604 | 16 | 359 | 0.0 | 6.4 | 0.00 | 0.41 | 0.10 | 98 | 1013.1 |
| 20260507155101 | 16 | 331 | 0.0 | 6.4 | 0.00 | 0.41 | 0.10 | 98 | 1013.1 |
| 20260507154822 | 16 | 30 | 0.0 | 6.4 | 0.00 | 0.41 | 0.10 | 98 | 1012.8 |
| 20260507154101 | 16 | 1 | 0.0 | 4.8 | 0.00 | 0.41 | 0.10 | 98 | 1012.8 |
| 20260507153824 | 16 | 4 | 0.0 | 4.8 | 0.00 | 0.41 | 0.10 | 98 | 1012.9 |
| 20260507152601 | 16 | 5 | 0.0 | 4.8 | 0.00 | 0.41 | 0.10 | 98 | 1013.1 |
| 20260507151601 | 16 | 15 | 0.0 | 4.8 | 0.00 | 0.43 | 0.10 | 98 | 1013.3 |
| 20260507151100 | 16 | 20 | 0.0 | 4.8 | 0.00 | 0.43 | 0.10 | 98 | 1013.2 |
| 20260507150559 | 16 | 17 | 0.0 | 4.8 | 0.00 | 0.43 | 0.10 | 98 | 1013.2 |
| 20260507150056 | 16 | 8 | 1.6 | 4.8 | 0.00 | 0.43 | 0.10 | 98 | 1013.2 |
| 20260507145557 | 16 | 62 | 0.0 | 6.4 | 0.00 | 0.43 | 0.10 | 98 | 1013.0 |
| 20260507145322 | 16 | 8 | 0.0 | 6.4 | 0.00 | 0.43 | 0.10 | 98 | 1013.2 |
| 20260507144554 | 16 | 25 | 0.0 | 8.0 | 0.00 | 0.43 | 0.10 | 98 | 1013.3 |
| 20260507144055 | 16 | 342 | 0.0 | 8.0 | 0.00 | 0.43 | 0.10 | 98 | 1013.1 |
| 20260507143549 | 16 | 7 | 0.0 | 1.6 | 0.00 | 0.43 | 0.10 | 98 | 1013.1 |
| 20260507143044 | 16 | 357 | 0.0 | 3.2 | 0.00 | 0.43 | 0.10 | 98 | 1013.1 |
| 20260507142755 | 16 | 13 | 0.0 | 3.2 | 0.00 | 0.43 | 0.10 | 98 | 1012.7 |
| 20260507142032 | 16 | 40 | 0.0 | 4.8 | 0.00 | 0.43 | 0.10 | 98 | 1012.9 |
| 20260507141526 | 16 | 40 | 1.6 | 4.8 | 0.00 | 0.43 | 0.10 | 98 | 1013.1 |
| 20260507141020 | 16 | 344 | 1.6 | 6.4 | 0.00 | 0.43 | 0.10 | 98 | 1012.8 |
| 20260507140513 | 17 | 336 | 0.0 | 6.4 | 0.00 | 0.43 | 0.10 | 99 | 1012.5 |
| 20260507140007 | 17 | 30 | 0.0 | 3.2 | 0.00 | 0.43 | 0.10 | 99 | 1012.4 |
| 20260507135502 | 17 | 89 | 0.0 | 6.4 | 0.00 | 0.43 | 0.10 | 99 | 1012.6 |
| 20260507134955 | 17 | 326 | 0.0 | 6.4 | 0.00 | 0.43 | 0.10 | 99 | 1012.6 |
| 20260507134450 | 17 | 8 | 0.0 | 3.2 | 0.03 | 0.43 | 0.10 | 99 | 1012.7 |
| 20260507133943 | 17 | 340 | 0.0 | 3.2 | 0.03 | 0.43 | 0.10 | 99 | 1012.6 |
| 20260507133438 | 17 | 41 | 0.0 | 0.0 | 0.03 | 0.43 | 0.10 | 99 | 1012.6 |
| 20260507132932 | 17 | 41 | 0.0 | 0.0 | 0.03 | 0.43 | 0.10 | 99 | 1012.7 |
| 20260507132431 | 17 | 40 | 0.0 | 0.0 | 0.03 | 0.43 | 0.10 | 99 | 1012.4 |
| 20260507131426 | 17 | 94 | 0.0 | 1.6 | 0.03 | 0.43 | 0.10 | 99 | 1012.9 |
| 20260507130926 | 17 | 128 | 0.0 | 1.6 | 0.03 | 0.43 | 0.10 | 99 | 1013.3 |
| 20260507130426 | 17 | 205 | 0.0 | 1.6 | 0.03 | 0.43 | 0.10 | 99 | 1013.4 |
| 20260507125927 | 16 | 205 | 0.0 | 1.6 | 0.03 | 0.43 | 0.10 | 99 | 1013.2 |
| 20260507125425 | 16 | 197 | 0.0 | 3.2 | 0.03 | 0.43 | 0.10 | 99 | 1013.3 |
| 20260507124925 | 16 | 342 | 0.0 | 3.2 | 0.05 | 0.43 | 0.10 | 99 | 1013.5 |
| 20260507124427 | 16 | 273 | 0.0 | 1.6 | 0.03 | 0.41 | 0.08 | 99 | 1013.8 |
| 20260507124150 | 16 | 178 | 0.0 | 1.6 | 0.03 | 0.41 | 0.08 | 99 | 1013.8 |
| 20260507123421 | 16 | 229 | 0.0 | 1.6 | 0.03 | 0.41 | 0.08 | 99 | 1014.1 |
| 20260507122926 | 16 | 250 | 0.0 | 1.6 | 0.03 | 0.41 | 0.08 | 99 | 1014.0 |
| 20260507122640 | 16 | 233 | 0.0 | 4.8 | 0.03 | 0.41 | 0.08 | 99 | 1014.0 |
| 20260507121921 | 16 | 16 | 0.0 | 4.8 | 0.03 | 0.41 | 0.08 | 99 | 1014.1 |
| 20260507120921 | 16 | 217 | 1.6 | 6.4 | 0.03 | 0.41 | 0.08 | 99 | 1013.7 |
| 20260507120423 | 16 | 225 | 0.0 | 4.8 | 0.03 | 0.41 | 0.08 | 99 | 1013.7 |
| 20260507115416 | 16 | 206 | 1.6 | 6.4 | 0.03 | 0.41 | 0.08 | 99 | 1013.2 |
| 20260507114910 | 16 | 226 | 1.6 | 4.8 | 0.00 | 0.38 | 0.05 | 99 | 1013.4 |
| 20260507114404 | 16 | 210 | 1.6 | 4.8 | 0.00 | 0.38 | 0.05 | 99 | 1013.7 |
| 20260507113858 | 16 | 195 | 1.6 | 3.2 | 0.00 | 0.38 | 0.05 | 99 | 1013.4 |
| 20260507113618 | 16 | 207 | 1.6 | 3.2 | 0.00 | 0.38 | 0.05 | 99 | 1013.5 |
| 20260507113112 | 16 | 176 | 0.0 | 3.2 | 0.00 | 0.38 | 0.05 | 99 | 1013.1 |
| 20260507112340 | 16 | 199 | 0.0 | 0.0 | 0.00 | 0.38 | 0.05 | 99 | 1012.9 |
| 20260507111835 | 16 | 199 | 0.0 | 0.0 | 0.00 | 0.38 | 0.05 | 99 | 1012.8 |
| 20260507111328 | 16 | 257 | 0.0 | 0.0 | 0.00 | 0.38 | 0.05 | 99 | 1013.1 |
| 20260507110822 | 16 | 257 | 0.0 | 0.0 | 0.00 | 0.38 | 0.05 | 99 | 1013.1 |
| 20260507110316 | 16 | 257 | 0.0 | 0.0 | 0.00 | 0.38 | 0.05 | 99 | 1013.0 |
| 20260507105810 | 16 | 257 | 0.0 | 0.0 | 0.00 | 0.38 | 0.05 | 99 | 1012.9 |
| 20260507105306 | 16 | 257 | 0.0 | 0.0 | 0.00 | 0.38 | 0.05 | 99 | 1012.9 |
| 20260507104758 | 16 | 257 | 0.0 | 0.0 | 0.00 | 0.38 | 0.05 | 99 | 1012.8 |
| 20260507104252 | 16 | 257 | 0.0 | 0.0 | 0.00 | 0.38 | 0.05 | 99 | 1013.0 |
| 20260507103746 | 16 | 257 | 0.0 | 1.6 | 0.00 | 0.38 | 0.05 | 99 | 1013.0 |
| 20260507103242 | 16 | 257 | 0.0 | 1.6 | 0.00 | 0.38 | 0.05 | 99 | 1013.0 |
| 20260507102734 | 16 | 257 | 0.0 | 4.8 | 0.00 | 0.38 | 0.05 | 99 | 1012.8 |
| 20260507102228 | 16 | 218 | 1.6 | 4.8 | 0.00 | 0.38 | 0.05 | 99 | 1012.7 |
| 20260507101723 | 16 | 217 | 1.6 | 4.8 | 0.00 | 0.38 | 0.05 | 99 | 1012.6 |
| 20260507101216 | 16 | 198 | 1.6 | 4.8 | 0.00 | 0.38 | 0.05 | 99 | 1012.6 |
| 20260507100710 | 16 | 213 | 1.6 | 4.8 | 0.00 | 0.38 | 0.05 | 99 | 1012.5 |
| 20260507100204 | 16 | 211 | 1.6 | 4.8 | 0.00 | 0.38 | 0.05 | 99 | 1012.6 |
| 20260507095658 | 16 | 212 | 0.0 | 3.2 | 0.00 | 0.38 | 0.05 | 99 | 1012.6 |
| 20260507095152 | 16 | 169 | 1.6 | 4.8 | 0.00 | 0.38 | 0.05 | 99 | 1012.6 |
| 20260507094645 | 16 | 214 | 0.0 | 4.8 | 0.00 | 0.38 | 0.05 | 99 | 1012.6 |
| 20260507094356 | 16 | 200 | 0.0 | 3.2 | 0.00 | 0.38 | 0.05 | 99 | 1012.5 |
| 20260507093633 | 16 | 207 | 0.0 | 3.2 | 0.00 | 0.38 | 0.05 | 99 | 1012.5 |
| 20260507093358 | 16 | 239 | 0.0 | 1.6 | 0.00 | 0.38 | 0.05 | 99 | 1012.3 |
| 20260507092622 | 16 | 239 | 0.0 | 1.6 | 0.00 | 0.38 | 0.05 | 99 | 1012.3 |
| 20260507092346 | 16 | 241 | 0.0 | 1.6 | 0.00 | 0.38 | 0.05 | 99 | 1012.3 |
| 20260507091610 | 16 | 204 | 0.0 | 0.0 | 0.00 | 0.38 | 0.05 | 99 | 1012.3 |
| 20260507091104 | 16 | 204 | 0.0 | 1.6 | 0.00 | 0.38 | 0.05 | 99 | 1012.6 |
| 20260507090558 | 16 | 206 | 0.0 | 3.2 | 0.00 | 0.38 | 0.05 | 99 | 1012.9 |
| 20260507090055 | 16 | 207 | 0.0 | 3.2 | 0.00 | 0.38 | 0.05 | 99 | 1013.0 |
| 20260507085815 | 16 | 210 | 0.0 | 3.2 | 0.00 | 0.38 | 0.05 | 99 | 1012.9 |
| 20260507085054 | 16 | 226 | 0.0 | 1.6 | 0.00 | 0.38 | 0.05 | 99 | 1012.9 |
| 20260507084558 | 16 | 228 | 0.0 | 1.6 | 0.00 | 0.38 | 0.05 | 99 | 1013.0 |
| 20260507084044 | 16 | 281 | 0.0 | 0.0 | 0.00 | 0.38 | 0.05 | 99 | 1013.0 |
| 20260507083312 | 16 | 281 | 0.0 | 3.2 | 0.00 | 0.38 | 0.05 | 99 | 1013.0 |
| 20260507082551 | 16 | 281 | 0.0 | 3.2 | 0.00 | 0.38 | 0.05 | 99 | 1012.9 |
| 20260507082310 | 16 | 167 | 0.0 | 3.2 | 0.00 | 0.38 | 0.05 | 99 | 1012.9 |
| 20260507081550 | 16 | 184 | 0.0 | 3.2 | 0.00 | 0.38 | 0.05 | 99 | 1012.7 |
| 20260507081049 | 16 | 218 | 0.0 | 1.6 | 0.00 | 0.38 | 0.05 | 99 | 1012.7 |
| 20260507080808 | 16 | 220 | 0.0 | 1.6 | 0.00 | 0.38 | 0.05 | 99 | 1012.9 |
| 20260507080049 | 16 | 236 | 0.0 | 1.6 | 0.00 | 0.38 | 0.05 | 99 | 1012.8 |
| 20260507075551 | 16 | 238 | 0.0 | 1.6 | 0.00 | 0.38 | 0.05 | 99 | 1012.9 |
| 20260507075528 | 16 | 300 | 0.0 | 1.6 | 0.00 | 0.38 | 0.05 | 99 | 1012.8 |
| 20260507074808 | 16 | 210 | 0.0 | 1.6 | 0.00 | 0.38 | 0.05 | 99 | 1012.6 |
| 20260507074045 | 16 | 217 | 0.0 | 1.6 | 0.00 | 0.38 | 0.05 | 99 | 1012.6 |
| 20260507073545 | 16 | 217 | 0.0 | 1.6 | 0.00 | 0.38 | 0.05 | 98 | 1012.7 |
| 20260507073046 | 16 | 231 | 0.0 | 1.6 | 0.00 | 0.38 | 0.05 | 99 | 1012.7 |
| 20260507072545 | 16 | 207 | 0.0 | 4.8 | 0.00 | 0.38 | 0.05 | 98 | 1012.9 |
| 20260507072046 | 16 | 180 | 0.0 | 4.8 | 0.00 | 0.38 | 0.05 | 98 | 1013.1 |
| 20260507071546 | 16 | 205 | 0.0 | 1.6 | 0.00 | 0.38 | 0.05 | 98 | 1013.1 |
| 20260507071046 | 16 | 46 | 0.0 | 1.6 | 0.00 | 0.38 | 0.05 | 98 | 1013.0 |
| 20260507070806 | 16 | 46 | 0.0 | 3.2 | 0.00 | 0.38 | 0.05 | 98 | 1013.3 |
| 20260507070046 | 16 | 44 | 0.0 | 3.2 | 0.00 | 0.38 | 0.05 | 98 | 1013.5 |
| 20260507065545 | 16 | 174 | 0.0 | 4.8 | 0.00 | 0.38 | 0.05 | 98 | 1013.3 |
| 20260507065045 | 16 | 179 | 0.0 | 4.8 | 0.00 | 0.38 | 0.05 | 98 | 1013.0 |
| 20260507064545 | 17 | 288 | 1.6 | 9.7 | 0.00 | 0.38 | 0.05 | 98 | 1013.0 |
| 20260507064046 | 17 | 258 | 3.2 | 9.7 | 0.00 | 0.38 | 0.05 | 98 | 1013.0 |
| 20260507063815 | 17 | 155 | 1.6 | 9.7 | 0.00 | 0.38 | 0.05 | 98 | 1013.1 |
| 20260507063308 | 17 | 203 | 3.2 | 9.7 | 0.00 | 0.38 | 0.05 | 98 | 1013.1 |
| 20260507062545 | 17 | 167 | 3.2 | 9.7 | 0.00 | 0.38 | 0.05 | 98 | 1013.1 |
| 20260507062044 | 17 | 207 | 3.2 | 8.0 | 0.00 | 0.38 | 0.05 | 98 | 1013.1 |
| 20260507061545 | 17 | 205 | 3.2 | 8.0 | 0.00 | 0.38 | 0.05 | 98 | 1013.3 |
| 20260507061046 | 17 | 195 | 3.2 | 11.3 | 0.00 | 0.38 | 0.05 | 98 | 1013.7 |
| 20260507060811 | 17 | 127 | 3.2 | 11.3 | 0.05 | 0.38 | 0.05 | 98 | 1014.2 |
| 20260507060044 | 17 | 217 | 1.6 | 9.7 | 0.05 | 0.38 | 0.05 | 98 | 1014.3 |
| 20260507055541 | 17 | 243 | 1.6 | 6.4 | 0.05 | 0.38 | 0.05 | 98 | 1014.5 |
| 20260507055042 | 17 | 219 | 1.6 | 6.4 | 0.05 | 0.38 | 0.05 | 98 | 1014.7 |
| 20260507054541 | 17 | 199 | 3.2 | 9.7 | 0.05 | 0.38 | 0.05 | 98 | 1014.6 |
| 20260507054300 | 17 | 212 | 3.2 | 9.7 | 0.05 | 0.38 | 0.05 | 98 | 1014.4 |
| 20260507053540 | 17 | 160 | 3.2 | 9.7 | 0.05 | 0.38 | 0.05 | 98 | 1014.7 |
| 20260507053306 | 17 | 204 | 3.2 | 8.0 | 0.05 | 0.38 | 0.05 | 98 | 1015.0 |
| 20260507052808 | 17 | 248 | 3.2 | 8.0 | 0.05 | 0.38 | 0.05 | 98 | 1014.9 |
| 20260507052305 | 17 | 246 | 3.2 | 9.7 | 0.05 | 0.38 | 0.05 | 98 | 1015.1 |
| 20260507051801 | 17 | 139 | 3.2 | 9.7 | 0.05 | 0.38 | 0.05 | 98 | 1015.1 |
| 20260507051027 | 17 | 186 | 3.2 | 11.3 | 0.05 | 0.38 | 0.05 | 98 | 1015.3 |
| 20260507050522 | 17 | 227 | 3.2 | 11.3 | 0.00 | 0.33 | 0.00 | 98 | 1015.0 |
| 20260507050014 | 17 | 197 | 1.6 | 8.0 | 0.00 | 0.33 | 0.00 | 98 | 1015.8 |
| 20260507045509 | 17 | 179 | 1.6 | 6.4 | 0.00 | 0.33 | 0.00 | 98 | 1015.3 |
| 20260507045002 | 17 | 173 | 1.6 | 8.0 | 0.00 | 0.33 | 0.00 | 98 | 1015.3 |
| 20260507044943 | 17 | 216 | 1.6 | 8.0 | 0.00 | 0.33 | 0.00 | 98 | 1015.3 |
| 20260507043958 | 17 | 287 | 1.6 | 6.4 | 0.00 | 0.33 | 0.00 | 98 | 1015.4 |
| 20260507043458 | 17 | 264 | 1.6 | 6.4 | 0.00 | 0.33 | 0.00 | 98 | 1015.2 |
| 20260507042956 | 17 | 161 | 1.6 | 8.0 | 0.00 | 0.33 | 0.00 | 98 | 1014.9 |
| 20260507042456 | 18 | 123 | 1.6 | 8.0 | 0.00 | 0.33 | 0.00 | 98 | 1014.9 |
| 20260507041955 | 18 | 153 | 1.6 | 6.4 | 0.03 | 0.33 | 0.00 | 98 | 1014.9 |
| 20260507041450 | 18 | 259 | 1.6 | 6.4 | 0.05 | 0.33 | 0.00 | 98 | 1015.1 |
| 20260507040950 | 18 | 202 | 1.6 | 11.3 | 0.05 | 0.33 | 0.00 | 98 | 1014.9 |
| 20260507040450 | 18 | 184 | 3.2 | 11.3 | 0.05 | 0.33 | 0.00 | 98 | 1014.9 |
| 20260507040207 | 18 | 222 | 3.2 | 11.3 | 0.10 | 0.33 | 0.33 | 98 | 1015.0 |
| 20260507035715 | 18 | 311 | 3.2 | 11.3 | 0.10 | 0.33 | 0.33 | 98 | 1014.8 |
| 20260507034948 | 18 | 206 | 3.2 | 9.7 | 0.13 | 0.33 | 0.33 | 98 | 1014.9 |
| 20260507034449 | 18 | 212 | 4.8 | 9.7 | 0.13 | 0.33 | 0.33 | 98 | 1014.3 |
| 20260507033945 | 18 | 157 | 4.8 | 9.7 | 0.15 | 0.33 | 0.33 | 98 | 1014.2 |
| 20260507033445 | 18 | 186 | 3.2 | 6.4 | 0.15 | 0.33 | 0.33 | 98 | 1014.5 |
| 20260507032946 | 18 | 152 | 3.2 | 6.4 | 0.15 | 0.33 | 0.33 | 98 | 1014.2 |
| 20260507032445 | 18 | 84 | 3.2 | 11.3 | 0.15 | 0.33 | 0.33 | 98 | 1013.2 |
| 20260507031945 | 18 | 197 | 4.8 | 11.3 | 0.13 | 0.30 | 0.30 | 98 | 1015.4 |
| 20260507031438 | 18 | 238 | 6.4 | 11.3 | 0.10 | 0.28 | 0.30 | 98 | 1015.8 |
| 20260507030931 | 18 | 226 | 4.8 | 12.9 | 0.10 | 0.28 | 0.28 | 98 | 1015.9 |
| 20260507030426 | 18 | 189 | 4.8 | 11.3 | 0.08 | 0.25 | 0.28 | 98 | 1015.7 |
| 20260507025919 | 18 | 113 | 4.8 | 12.9 | 0.05 | 0.23 | 0.23 | 98 | 1015.7 |
| 20260507025413 | 18 | 152 | 3.2 | 12.9 | 0.08 | 0.23 | 0.23 | 98 | 1015.8 |
| 20260507025128 | 18 | 210 | 3.2 | 11.3 | 0.05 | 0.20 | 0.20 | 98 | 1015.8 |
| 20260507024401 | 18 | 184 | 3.2 | 11.3 | 0.05 | 0.20 | 0.20 | 98 | 1015.9 |
| 20260507023856 | 18 | 110 | 1.6 | 9.7 | 0.03 | 0.18 | 0.18 | 98 | 1015.7 |
| 20260507023350 | 18 | 177 | 1.6 | 8.0 | 0.03 | 0.18 | 0.18 | 98 | 1015.4 |
| 20260507022844 | 18 | 193 | 1.6 | 6.4 | 0.03 | 0.18 | 0.18 | 98 | 1015.1 |
| 20260507022338 | 18 | 231 | 1.6 | 4.8 | 0.03 | 0.18 | 0.18 | 98 | 1014.8 |
| 20260507021831 | 18 | 214 | 1.6 | 3.2 | 0.03 | 0.18 | 0.18 | 98 | 1014.6 |
| 20260507021326 | 18 | 202 | 1.6 | 6.4 | 0.03 | 0.18 | 0.18 | 98 | 1014.7 |
| 20260507020820 | 18 | 143 | 1.6 | 6.4 | 0.05 | 0.18 | 0.18 | 97 | 1014.8 |
| 20260507020314 | 18 | 235 | 1.6 | 6.4 | 0.05 | 0.18 | 0.18 | 97 | 1014.9 |
| 20260507015808 | 18 | 276 | 1.6 | 6.4 | 0.05 | 0.15 | 0.15 | 97 | 1015.0 |
| 20260507015301 | 18 | 252 | 1.6 | 6.4 | 0.05 | 0.15 | 0.15 | 97 | 1014.9 |
| 20260507014756 | 18 | 256 | 1.6 | 6.4 | 0.05 | 0.15 | 0.15 | 97 | 1014.9 |
| 20260507014249 | 18 | 150 | 3.2 | 8.0 | 0.05 | 0.15 | 0.15 | 97 | 1014.6 |
| 20260507013743 | 18 | 217 | 3.2 | 8.0 | 0.05 | 0.15 | 0.15 | 97 | 1014.6 |
| 20260507013237 | 18 | 201 | 1.6 | 8.0 | 0.08 | 0.15 | 0.15 | 97 | 1014.6 |
| 20260507012731 | 18 | 205 | 3.2 | 8.0 | 0.08 | 0.15 | 0.15 | 97 | 1014.3 |
| 20260507012225 | 18 | 238 | 3.2 | 8.0 | 0.08 | 0.15 | 0.15 | 97 | 1014.2 |
| 20260507011719 | 18 | 224 | 1.6 | 8.0 | 0.08 | 0.15 | 0.15 | 97 | 1014.2 |
| 20260507011656 | 18 | 212 | 1.6 | 6.4 | 0.05 | 0.13 | 0.15 | 97 | 1014.4 |
| 20260507010708 | 18 | 224 | 1.6 | 6.4 | 0.05 | 0.13 | 0.13 | 96 | 1014.5 |
| 20260507010202 | 18 | 198 | 1.6 | 6.4 | 0.05 | 0.13 | 0.13 | 96 | 1014.5 |
| 20260507005656 | 18 | 201 | 1.6 | 3.2 | 0.03 | 0.10 | 0.10 | 96 | 1014.8 |
| 20260507005150 | 18 | 210 | 1.6 | 3.2 | 0.03 | 0.10 | 0.10 | 95 | 1014.8 |
| 20260507004644 | 18 | 219 | 1.6 | 3.2 | 0.03 | 0.10 | 0.10 | 95 | 1014.6 |
| 20260507004403 | 18 | 176 | 0.0 | 3.2 | 0.03 | 0.10 | 0.10 | 94 | 1014.7 |
| 20260507003632 | 19 | 224 | 0.0 | 3.2 | 0.03 | 0.10 | 0.10 | 93 | 1014.8 |
| 20260507003126 | 19 | 234 | 0.0 | 3.2 | 0.00 | 0.08 | 0.08 | 93 | 1014.9 |
| 20260507002842 | 19 | 210 | 0.0 | 1.6 | 0.00 | 0.08 | 0.08 | 93 | 1014.7 |
| 20260507002114 | 19 | 174 | 0.0 | 1.6 | 0.00 | 0.08 | 0.08 | 92 | 1014.5 |
| 20260507001608 | 19 | 210 | 0.0 | 4.8 | 0.00 | 0.08 | 0.08 | 92 | 1014.7 |
| 20260507001317 | 19 | 224 | 0.0 | 4.8 | 0.00 | 0.08 | 0.08 | 92 | 1014.6 |
| 20260507000822 | 19 | 237 | 0.0 | 3.2 | 0.00 | 0.08 | 0.08 | 91 | 1014.7 |
| 20260507000049 | 20 | 186 | 1.6 | 6.4 | 0.00 | 0.08 | 0.08 | 91 | 1014.6 |
| 20260506235544 | 20 | 226 | 1.6 | 6.4 | 0.00 | 0.08 | 0.08 | 90 | 1014.8 |
| 20260506235253 | 20 | 169 | 1.6 | 4.8 | 0.00 | 0.08 | 0.08 | 90 | 1014.6 |
| 20260506234532 | 20 | 222 | 1.6 | 4.8 | 0.00 | 0.08 | 0.08 | 89 | 1014.4 |
| 20260506234504 | 20 | 210 | 1.6 | 8.0 | 0.00 | 0.08 | 0.08 | 89 | 1014.3 |
| 20260506233519 | 20 | 259 | 3.2 | 8.0 | 0.00 | 0.08 | 0.08 | 88 | 1014.1 |
| 20260506233014 | 20 | 210 | 4.8 | 11.3 | 0.00 | 0.08 | 0.08 | 87 | 1013.9 |
| 20260506232513 | 20 | 199 | 4.8 | 11.3 | 0.00 | 0.08 | 0.08 | 87 | 1013.9 |
| 20260506232002 | 20 | 165 | 4.8 | 11.3 | 0.00 | 0.08 | 0.08 | 86 | 1014.1 |
| 20260506231456 | 20 | 154 | 3.2 | 9.7 | 0.00 | 0.08 | 0.08 | 86 | 1014.2 |
| 20260506230950 | 20 | 267 | 4.8 | 12.9 | 0.00 | 0.08 | 0.08 | 85 | 1014.1 |
| 20260506225948 | 21 | 157 | 4.8 | 12.9 | 0.00 | 0.08 | 0.08 | 85 | 1014.2 |
| 20260506225444 | 21 | 243 | 3.2 | 11.3 | 0.00 | 0.08 | 0.08 | 84 | 1014.5 |
| 20260506224946 | 21 | 221 | 3.2 | 8.0 | 0.00 | 0.08 | 0.08 | 84 | 1014.7 |
| 20260506224707 | 21 | 230 | 3.2 | 9.7 | 0.00 | 0.08 | 0.08 | 85 | 1014.7 |
| 20260506223944 | 21 | 200 | 3.2 | 9.7 | 0.00 | 0.08 | 0.08 | 84 | 1014.9 |
| 20260506223713 | 21 | 185 | 3.2 | 12.9 | 0.00 | 0.08 | 0.08 | 84 | 1015.1 |
| 20260506222943 | 21 | 184 | 3.2 | 12.9 | 0.00 | 0.08 | 0.08 | 83 | 1014.9 |
| 20260506222711 | 21 | 182 | 4.8 | 12.9 | 0.00 | 0.08 | 0.08 | 83 | 1014.9 |
| 20260506221944 | 21 | 162 | 4.8 | 12.9 | 0.00 | 0.08 | 0.08 | 83 | 1014.9 |
| 20260506221443 | 21 | 233 | 3.2 | 11.3 | 0.00 | 0.08 | 0.08 | 83 | 1014.8 |
| 20260506220943 | 21 | 149 | 3.2 | 12.9 | 0.00 | 0.08 | 0.08 | 83 | 1014.8 |
| 20260506220443 | 21 | 196 | 4.8 | 12.9 | 0.00 | 0.08 | 0.08 | 83 | 1014.8 |
| 20260506215942 | 21 | 167 | 4.8 | 12.9 | 0.00 | 0.08 | 0.08 | 83 | 1014.7 |
| 20260506215712 | 21 | 333 | 4.8 | 12.9 | 0.00 | 0.08 | 0.08 | 82 | 1014.9 |
| 20260506214938 | 21 | 147 | 4.8 | 11.3 | 0.00 | 0.08 | 0.08 | 82 | 1015.0 |
| 20260506214709 | 21 | 222 | 3.2 | 9.7 | 0.00 | 0.08 | 0.08 | 82 | 1015.0 |
| 20260506213938 | 21 | 179 | 1.6 | 9.7 | 0.00 | 0.08 | 0.08 | 83 | 1014.6 |
| 20260506213438 | 21 | 226 | 3.2 | 9.7 | 0.00 | 0.08 | 0.08 | 83 | 1014.4 |
| 20260506212934 | 21 | 237 | 3.2 | 11.3 | 0.00 | 0.08 | 0.08 | 83 | 1014.4 |
| 20260506212433 | 21 | 159 | 6.4 | 16.1 | 0.00 | 0.08 | 0.08 | 82 | 1014.2 |
| 20260506211932 | 21 | 223 | 8.0 | 16.1 | 0.00 | 0.08 | 0.08 | 82 | 1014.2 |
| 20260506211433 | 21 | 173 | 6.4 | 14.5 | 0.00 | 0.08 | 0.08 | 82 | 1014.0 |
| 20260506210934 | 21 | 200 | 6.4 | 16.1 | 0.00 | 0.08 | 0.08 | 81 | 1014.1 |
| 20260506210434 | 21 | 171 | 6.4 | 16.1 | 0.00 | 0.08 | 0.08 | 81 | 1014.4 |
| 20260506210413 | 22 | 226 | 4.8 | 16.1 | 0.00 | 0.08 | 0.08 | 81 | 1014.5 |
| 20260506205658 | 22 | 208 | 6.4 | 17.7 | 0.00 | 0.08 | 0.08 | 81 | 1014.5 |